Voltar ao catálogo

USA 40 R/B DEB

LostHEO
NORAD 44056·DEBRIS·🇺🇸 United States

Lançado Aug 8, 1989 de Cape Canaveral Space Force Station

Loading…

Próximas Passagens (próximas 24 horas)

TLE

ObsoletoSource: Space-Track

Época: May 1, 2019, 22:51 UTC

1 44056U 89061BV  19121.95254112  .00002918  00000-0  37995-2 0  9991
2 44056  57.0509 323.2459 3016091 202.2497 141.4114  8.72517241696746

Acompanhe USA 40 R/B DEB em tempo real com AllMySat

Download on the App Store